Weather History for Pontiac, MI

Change the Weather History Date:

Friday, June 28, 2013

  Actual Average Record
Temperature  
Mean Temperature 68 °F -  
Max Temperature 73 °F 80 °F 99 °F (2012)
Min Temperature 63 °F 59 °F 57 °F (2004)
Cooling Degree Days 3    
Growing Degree Days 18 (Base 50)    
Moisture  
Dew Point 63 °F    
Average Humidity 87    
Maximum Humidity 99    
Minimum Humidity 64    
Precipitation  
Precipitation 0.66 in - - ()
Sea Level Pressure  
Sea Level Pressure 29.58 in    
Wind  
Wind Speed 7 mph (NW)    
Max Wind Speed 17 mph    
Max Gust Speed -    
Visibility 8 miles    
Events Rain , Thunderstorm    
Averages and records for this station are not official NWS values.
T = Trace of Precipitation, MM = Missing Value Source: NWS Daily Summary

Daily Weather History Graph

Daily Weather History Graph

Search for Another Location

Airport:

Trip Planner

Search our weather history database for the weather conditions in past years. The results will help you decide how hot, cold, wet, or windy it might be!

Date:

Astronomy

Jun. 28, 2013 Rise Set
Actual Time 5:58 AM EDT 9:15 PM EDT
Civil Twilight 5:23 AM EDT 9:50 PM EDT
Nautical Twilight 4:37 AM EDT 10:35 PM EDT
Astronomical Twilight 3:42 AM EDT 11:31 PM EDT
Moon 12:04 AM EDT 12:13 PM EDT
Length of Visible Light 16h 27m
Length of Day
15h 17m
Waning Gibbous, 66% of the Moon is Illuminated
Jun 28
Waning Gibbous
Jun 30
Last Quarter
Jul 8
New
Jul 15
First Quarter
Jul 22
Full

Hourly Weather History & Observations

Time (EDT) Temp. Dew Point Humidity Pressure Visibility Wind Dir Wind Speed Gust Speed Precip Events Conditions
12:53 AM - - N/A% 29.66 in - North - - N/A   Unknown
1:53 AM - - N/A% 29.65 in - North - - N/A   Unknown
2:53 AM - - N/A% 29.63 in - North - - N/A   Unknown
3:53 AM - - N/A% 29.63 in - North - - N/A   Unknown
4:53 AM - - N/A% 29.63 in - North - - N/A   Unknown
5:53 AM 66.6 °F 66.2 °F 99% 29.60 in 4.0 mi Variable 3.5 mph - N/A   Overcast
6:53 AM 66.2 °F 62.6 °F 88% 29.60 in 7.0 mi Variable 3.5 mph - N/A   Scattered Clouds
7:19 AM 66.2 °F 62.6 °F 88% 29.61 in 8.0 mi North 3.5 mph - N/A   Mostly Cloudy
7:53 AM 64.9 °F 64.0 °F 97% 29.60 in 7.0 mi WNW 6.9 mph - N/A   Mostly Cloudy
8:53 AM 66.9 °F 64.0 °F 90% 29.58 in 10.0 mi West 8.1 mph - N/A   Mostly Cloudy
9:15 AM 66.2 °F 62.6 °F 88% 29.59 in 10.0 mi West 9.2 mph - N/A   Mostly Cloudy
9:35 AM 66.2 °F 64.4 °F 94% 29.59 in 10.0 mi West 9.2 mph - N/A   Mostly Cloudy
9:50 AM 66.2 °F 62.6 °F 88% 29.60 in 10.0 mi WNW 9.2 mph - N/A   Mostly Cloudy
9:53 AM 66.9 °F 63.0 °F 87% 29.58 in 10.0 mi WNW 8.1 mph - N/A   Mostly Cloudy
10:03 AM 66.2 °F 62.6 °F 88% 29.59 in 10.0 mi WNW 6.9 mph - N/A   Mostly Cloudy
10:21 AM 68.0 °F 62.6 °F 83% 29.59 in 10.0 mi WNW 11.5 mph - N/A   Mostly Cloudy
10:53 AM 71.1 °F 64.0 °F 78% 29.57 in 10.0 mi NW 17.3 mph - N/A   Mostly Cloudy
11:01 AM 69.8 °F 62.6 °F 78% 29.59 in 10.0 mi NW 15.0 mph - N/A   Mostly Cloudy
11:53 AM 71.1 °F 64.0 °F 78% 29.57 in 10.0 mi NW 15.0 mph - N/A   Overcast
12:15 PM 66.2 °F 60.8 °F 83% 29.58 in 9.0 mi West 12.7 mph - 0.01 in Rain Light Rain
12:53 PM 69.1 °F 63.0 °F 81% 29.57 in 10.0 mi West 9.2 mph - 0.02 in   Overcast
1:53 PM 72.0 °F 64.0 °F 76% 29.56 in 10.0 mi West 12.7 mph - N/A   Mostly Cloudy
2:53 PM 73.9 °F 61.0 °F 64% 29.55 in 10.0 mi WNW 9.2 mph - N/A   Overcast
3:20 PM 73.4 °F 60.8 °F 65% 29.55 in 10.0 mi NNW 10.4 mph - 0.00 in Rain , Thunderstorm Light Thunderstorms and Rain
3:40 PM 69.8 °F 62.6 °F 78% 29.55 in 10.0 mi North 9.2 mph - 0.01 in Rain Light Rain
3:53 PM 66.9 °F 62.1 °F 84% 29.55 in 7.0 mi WNW 11.5 mph - 0.02 in Rain Light Rain
4:10 PM 66.2 °F 60.8 °F 83% 29.55 in 10.0 mi NNW 5.8 mph - 0.01 in Rain , Thunderstorm Light Thunderstorms and Rain
4:43 PM 68.0 °F 64.4 °F 88% 29.55 in 10.0 mi NW 8.1 mph - 0.01 in Rain Light Rain
4:53 PM 68.0 °F 63.0 °F 84% 29.55 in 10.0 mi WNW 8.1 mph - 0.01 in   Overcast
5:53 PM 69.1 °F 64.9 °F 87% 29.54 in 10.0 mi West 5.8 mph - N/A   Mostly Cloudy
6:53 PM 70.0 °F 64.9 °F 84% 29.55 in 10.0 mi WNW 9.2 mph - N/A Thunderstorm Thunderstorm
7:32 PM 69.8 °F 64.4 °F 83% 29.57 in 10.0 mi NW 6.9 mph - N/A   Mostly Cloudy
7:53 PM 70.0 °F 64.0 °F 81% 29.56 in 10.0 mi West 8.1 mph - N/A   Mostly Cloudy
8:44 PM 68.0 °F 64.4 °F 88% 29.57 in 6.0 mi NNW 5.8 mph - 0.01 in Rain Light Rain
8:47 PM 66.2 °F 64.4 °F 94% 29.57 in 3.0 mi North 6.9 mph - 0.07 in Rain Rain
8:49 PM 66.2 °F 62.6 °F 88% 29.57 in 3.0 mi NNE 4.6 mph - 0.09 in Rain Light Rain
8:53 PM 66.0 °F 64.0 °F 93% 29.57 in 3.0 mi NW 5.8 mph - 0.15 in Rain Rain
9:10 PM 66.2 °F 64.4 °F 94% 29.58 in 5.0 mi WNW 8.1 mph - 0.14 in Rain Rain
9:15 PM 66.2 °F 62.6 °F 88% 29.58 in 4.0 mi NW 5.8 mph - 0.17 in Rain , Thunderstorm Thunderstorms and Rain
9:23 PM 64.4 °F 62.6 °F 94% 29.58 in 2.5 mi West 6.9 mph - 0.20 in Rain , Thunderstorm Thunderstorms and Rain
9:30 PM 64.4 °F 62.6 °F 94% 29.58 in 5.0 mi NW 5.8 mph - 0.21 in Rain , Thunderstorm Light Thunderstorms and Rain
9:49 PM 64.4 °F 62.6 °F 94% 29.58 in 4.0 mi NW 4.6 mph - 0.24 in Rain , Thunderstorm Light Thunderstorms and Rain
9:53 PM 64.9 °F 63.0 °F 93% 29.57 in 4.0 mi NNW 3.5 mph - 0.25 in Rain , Thunderstorm Light Thunderstorms and Rain
10:01 PM 64.4 °F 62.6 °F 94% 29.59 in 4.0 mi NNW 5.8 mph - 0.03 in Rain Rain
10:10 PM 64.4 °F 62.6 °F 94% 29.58 in 2.5 mi NNW 6.9 mph - 0.09 in Rain Rain
10:22 PM 64.4 °F 62.6 °F 94% 29.58 in 3.0 mi North 4.6 mph - 0.12 in Rain Rain
10:53 PM 63.0 °F 62.1 °F 97% 29.56 in 10.0 mi NNW 3.5 mph - 0.20 in Rain Light Rain
11:37 PM 64.4 °F 62.6 °F 94% 29.57 in 10.0 mi WNW 3.5 mph - 0.01 in Rain Light Rain
11:53 PM 64.0 °F 62.1 °F 93% 29.55 in 10.0 mi Calm Calm - 0.01 in   Scattered Clouds